User: anonymous   Login
Location: Buttermere
(51.3333°N, 1.5167°W)
Time: 14:51:23
(UTC+00:00)
Language:

Cosmos 1892 Rocket - Orbit

View from above orbital plane
View from above orbital plane
View from above satellite
View from above satellite

Ground track
Ground track

The orbit data is extracted from the following two-line orbital elements,

1 18422U 87088B   20333.53466715  .00000117  00000-0  11433-4 0  9991
2 18422  82.5130  75.7662 0018175 245.6197 124.8817 14.83050395788616
Epoch (UTC): 28 November 2020 12:49:55
Eccentricity: 0.0018175
inclination: 82.5130°
perigee height: 607 km
apogee height: 632 km
right ascension of ascending node: 75.7662°
argument of perigee: 245.6197°
revolutions per day: 14.83050395
mean anomaly at epoch: 124.8817°
orbit number at epoch: 78861

The dashed part of the orbit path shows where the satellite is in the earth's shadow,  

DLR